Location: Antioch Baptist Church
(32.6696°N, 85.7327°W)
Time: 12:06:56
(UTC+00:00)

Resurs 1-4 Rocket - Pass Details

Date: 14 July 2020
Orbit: 800 x 814 km, 98.6° (Epoch: 08 August)

Event Time Altitude Azimuth Distance (km) Brightness Sun altitude
Rises 08:09:53 0° 358° (N) 3,337 6.0 -26.1°
Reaches altitude 10° 08:12:35 10° 345° (NNW) 2,400 5.0 -25.8°
Enters shadow 08:16:39 25° 295° (WNW) 1,566 3.4 -25.3°
